User: anonymous   Login
Location: Caltech
(34.1382°N, 118.1253°W)
Time: 15:39:16
(UTC-08:00)
Language:

NOSS 3-1 (C) - Orbit

View from above orbital plane
View from above orbital plane
View from above satellite
View from above satellite

Ground track
Ground track

The orbit data is extracted from the following two-line orbital elements,

1 26907U 01040C   14322.76896643 0.00000000  00000-0  00000-0 0    03
2 26907  63.4213 272.8354 0287000 358.1319   1.8681 13.41211174    02
Epoch (UTC): 18 November 2014 18:27:18
Eccentricity: 0.0287000
inclination: 63.4213°
perigee height: 890 km
apogee height: 1319 km
right ascension of ascending node: 272.8354°
argument of perigee: 358.1319°
revolutions per day: 13.41211174
mean anomaly at epoch: 1.8681°
orbit number at epoch: 0

The dashed part of the orbit path shows where the satellite is in the earth's shadow,  

DLR